Regional Weather Roundup
Issued by NWS Upton, NY

Current Version | Previous Version | Graphics & Text | Print | Product List | Glossary Off
Versions: 1 2 3 4 5 6 7 8 9 10 11 12 13 14 15 16 17 18 19 20 21 22 23 24 25 26 27

000
ASUS41 KOKX 260508
RWROKX

REGIONAL WEATHER ROUNDUP
NATIONAL WEATHER SERVICE NEW YORK NY
1200 AM EST SUN FEB 26 2017

NOTE: "FAIR" INDICATES FEW OR NO CLOUDS BELOW 12,000 FEET WITH NO
SIGNIFICANT WEATHER AND/OR OBSTRUCTIONS TO VISIBILITY.

NYZ071-072-176-178-NJZ106-104-260600-
NEW YORK CITY METRO AREA

CITY           SKY/WX    TMP DP  RH WIND       PRES   REMARKS
Central Park   CLOUDY    44  34  67 NW9G17    29.68R
Wall St Helipt NOT AVBL
LaGuardia APRT MOCLDY    47  35  63 NW21G31   29.65R
Kennedy INTL   CLOUDY    47  37  68 NW22G30   29.65R
Breezy Point     N/A     45 N/A N/A NW17G24     N/A
Newark/Liberty CLOUDY    46  35  65 NW18G29   29.67R
Teterboro      CLOUDY    46  35  65 NW16G22   29.67R
$$

NYZ177-179-078>081-260600-
LONG ISLAND NEW YORK

CITY           SKY/WX    TMP DP  RH WIND       PRES   REMARKS
Jones Beach      N/A     46 N/A N/A NW18G26     N/A
Matinecock PT  NOT AVBL
Farmingdale    CLOUDY    47  40  76 NW10      29.62R
MacArthur/ISP  CLOUDY    44  39  82 N15       29.59R
Shirley        CLOUDY    44  39  82 NW15      29.62R
Westhampton    CLOUDY    44  39  82 NW18G26   29.60R
Southampton    NOT AVBL
Bridgehampton  NOT AVBL
East Hampton   LGT RAIN  43  38  81 NW16G23   29.55R
Montauk        NOT AVBL
$$

NYZ052-065-067-260600-
HUDSON VALLEY

CITY           SKY/WX    TMP DP  RH WIND       PRES   REMARKS
White Plains   PTCLDY    41  37  86 NW13      29.63R
Newburgh       CLOUDY    41  36  81 NW12      29.66R
Montgomery     MOCLDY    41  32  70 NW13G21   29.65R
Poughkeepsie   CLOUDY    39  37  92 W7        29.64R WCI  34
Albany         MOCLDY    38  31  76 NW9       29.65S WCI  31
$$

NJZ001-105-106-008-010-013-015-019>022-104-260600-
NEW JERSEY

CITY           SKY/WX    TMP DP  RH WIND       PRES   REMARKS
Newark/Liberty CLOUDY    46  35  65 NW18G29   29.67R
Teterboro      CLOUDY    46  35  65 NW16G22   29.67R
Caldwell       CLOUDY    44  34  67 NW12G22   29.69R
Somerville     LGT RAIN  44  37  76 NW9       29.69R
Linden         NOT AVBL
Sussex         MOCLDY    40  32  73 VRB3      29.69R
Andover          N/A     39  32  76 VRB6      29.69R WCI  35
Trenton        MOCLDY    45  31  58 NW16G22   29.70R
Millville      CLEAR     45  31  58 NW17G30   29.76R
Atlantic City  CLOUDY    47  35  63 W16G24    29.73R
Wrightstown    CLOUDY    45  32  58 NW13G22   29.68R
Toms River     CLOUDY    45  34  65 NW20G25   29.68R
Belmar         MOCLDY    46  37  71 W20G25    29.66F
$$

PAZ047>061-062-071-260600-
EASTERN PENNSYLVANIA

CITY           SKY/WX    TMP DP  RH WIND       PRES   REMARKS
Philadelphia   MOCLDY    47  29  49 NW22G33   29.76R
Allentown      MOCLDY    42  25  50 W10G25    29.73R
Scranton       CLOUDY    37  36  96 W7        29.72R WCI  32
$$

CTZ002-004>006-009-010-012-RIZ004-006-007-MAZ004-011-015-260600-
SOUTHERN NEW ENGLAND
 IN CT

CITY           SKY/WX    TMP DP  RH WIND       PRES   REMARKS
Bradley INTL   MOCLDY    41  33  73 NW15      29.59S
Hartford       PTCLDY    42  35  76 NW7       29.60R
Danbury        CLOUDY    40  34  79 NW7       29.63R
Wtrbury/Oxford CLOUDY    39  28  65 N13G20    29.60F WCI  32
Bridgeport     CLOUDY    44  35  70 NW9       29.63R
Meriden        CLOUDY    44  30  57 NW13G20   29.60R
New Haven      CLOUDY    43  33  68 N10G28    29.59S
Chester          N/A     41  36  81 NW13G24   29.56S
Groton         CLOUDY    45  39  79 NW16G28   29.56R
Wilimantic     CLOUDY    44  37  76 VRB7      29.58R

 IN RI

CITY           SKY/WX    TMP DP  RH WIND       PRES   REMARKS
Providence     LGT RAIN  48  43  82 NW7       29.48F
Block Island   PTCLDY    45  42  89 NW13G20   29.53R
Westerly       CLOUDY    46  39  76 NW9G18    29.53R
 IN MA

CITY           SKY/WX    TMP DP  RH WIND       PRES   REMARKS
Boston         CLOUDY    49  44  83 NW16G24   29.47F
Worcester      MOCLDY    40  35  83 W17G30    29.50R WCI  31
Westfield      CLEAR     40  33  76 NW12      29.58S WCI  33
Provincetown   MOCLDY    47  46  97 SW10      29.45F
Nantucket      LGT RAIN  46  44  93 SW10      29.49S VSB 1/4
$$

ANZ330-335-338-340-345-350-353-355-260600-
COASTAL MARINE OBSERVATIONS


STATION/POSITION TIME  SKY/WX   TEMP    WIND        PRES    VSBY  WAVE
                                AIR SEA DIR/SP/G                  HT/PER
                 (UTC)          (F)     (DEG/KT/KT) (MB)    (MI)  (FT/S)
NY HARB ENTRANCE 0350            47 44  280/  8/ 10 1002.6          5/11
20 S FIRE ISLAND 0450            46 44  270/ 16/ 19 1003.3          6/11
GREAT SOUTH BAY  NOT AVBL
23 SSW MONTAUK P 0350            47 45              1000.2          7/11
15 E BARNEGAT LI 0430               45                N/A           5/11
HUDSON CANYON    0350               47              1002.0          8/11
KINGS POINT      0448            44 41              1003.5
EXECUTION ROCKS  NOT AVBL
CENTRAL LI SOUND 0415            44     310/ 19/ 25   N/A           1/ 3
EASTERN LI SOUND NOT AVBL
ROBBINS REEF     0442            46     320/ 14/ 21 1004.4
$$


>>>>>>>>>>>>>>>>>>>>>>>>>>>> KEY <<<<<<<<<<<<<<<<<<<<<<<<<<<
>                                                          <
>     SKY/WX - Sky Condition/Present Weather               <
>     TMP    - Temperature in Fahrenheit                   <
>     DP     - Dew Point in Fahrenheit                     <
>     RH     - Relative Humidity in Percent                <
>     WIND   - Direction (from) and Speed in MPH           <
>     PRES   - Mean Sea Level Pressure (inches of Hg)      <
>     WCI    - Wind Chill Index                            <
>     VSB    - VISIBILITY IN MILES                         <
>     HX     - HEAT INDEX                                  <
>     TC     - TEMPERATURE IN CELSIUS                      <
>     VRB    - VARIABLE WIND DIRECTION                     <
>                                                          <
>>>>>>>>>>>>>>>>>>>>>>>>>>>> KEY <<<<<<<<<<<<<<<<<<<<<<<<<<<




USA.gov is the U.S. government's official web portal to all federal, state and local government web resources and services.